Location: Lane
(33.5226°N, 79.8788°W)
Time: 23:00:10
(UTC+00:00)

Vanguard 2 Rocket - Pass Details

Date: 06 October 2022
Orbit: 555 x 3321 km, 32.9° (Epoch: 03 December)

Event Time Altitude Azimuth Distance (km) Brightness Sun altitude
Exits shadow 09:59:12 12° 211° (SSW) 2,077 8.4 -17.1°
Drops below altitude 10° 10:00:19 10° 197° (SSW) 2,130 8.6 -16.9°
Sets 10:03:38 0° 166° (SSE) 2,819 9.6 -16.2°
